When you browse on this site, cookies collect data to enhance your experience and personalize the content and advertising you see.
Visit our Privacy Policy to learn more. By continuing to use the site, you agree to this use of cookies and data.
  • In France
  • List of Countries
  • For 7 days
  • Water Temperature
  • Satellite Maps
  • Weather Map
  • Weather Widgets
  • user-avatar
    Login

    Hourly Weather Accrington

    Today, 19 June, Wednesday

    Time Temperature Precipitation Wind Pressure Humidity
    00:00 +12°C° 0.7 mm 0 mps 742 mmHg 92%
    01:00 +11°C° 0.5 mm 0 mps 742 mmHg 93%
    02:00 +12°C° 0.5 mm 1 mps 742 mmHg 93%
    03:00 +12°C° 0.5 mm 1 mps 742 mmHg 93%
    04:00 +12°C° 0.3 mm 1 mps 741 mmHg 92%
    05:00 +11°C° 0.3 mm 0 mps 741 mmHg 91%
    06:00 +11°C° 0.3 mm 0 mps 741 mmHg 90%
    07:00 +12°C° 0.1 mm 0 mps 741 mmHg 87%
    08:00 +14°C° 0.1 mm 1 mps 741 mmHg 84%
    09:00 +14°C° 0.1 mm 1 mps 741 mmHg 80%
    10:00 +15°C° 0 mm 2 mps 741 mmHg 77%
    11:00 +16°C° 0 mm 3 mps 741 mmHg 74%
    12:00 +17°C° 0 mm 3 mps 741 mmHg 71%
    13:00 +17°C° 0.2 mm 4 mps 741 mmHg 72%
    14:00 +17°C° 0.2 mm 4 mps 740 mmHg 72%
    15:00 +16°C° 0.2 mm 5 mps 740 mmHg 72%
    16:00 +15°C° 0 mm 5 mps 740 mmHg 73%
    17:00 +15°C° 0 mm 5 mps 740 mmHg 73%
    18:00 +14°C° 0 mm 5 mps 740 mmHg 74%
    19:00 +13°C° 0 mm 4 mps 740 mmHg 78%
    20:00 +11°C° 0 mm 3 mps 740 mmHg 83%
    21:00 +10°C° 0 mm 2 mps 741 mmHg 88%
    22:00 +10°C° 0 mm 2 mps 741 mmHg 90%
    23:00 +10°C° 0 mm 2 mps 741 mmHg 91%

    Tomorrow, 20 June, Thursday

    Time Temperature Precipitation Wind Pressure Humidity
    00:00 +10°C° 0 mm 3 mps 741 mmHg 92%
    01:00 +10°C° 0 mm 3 mps 741 mmHg 92%
    02:00 +10°C° 0 mm 3 mps 741 mmHg 93%
    03:00 +10°C° 0 mm 3 mps 741 mmHg 93%
    04:00 +10°C° 0.1 mm 4 mps 741 mmHg 92%
    05:00 +10°C° 0.1 mm 4 mps 741 mmHg 90%
    06:00 +9°C° 0.1 mm 5 mps 741 mmHg 89%
    07:00 +10°C° 0.1 mm 5 mps 742 mmHg 84%
    08:00 +10°C° 0.1 mm 6 mps 742 mmHg 78%
    09:00 +11°C° 0.1 mm 6 mps 742 mmHg 73%
    10:00 +11°C° 0 mm 6 mps 742 mmHg 71%
    11:00 +13°C° 0 mm 6 mps 743 mmHg 69%
    12:00 +13°C° 0 mm 6 mps 743 mmHg 68%
    13:00 +13°C° 0.1 mm 6 mps 743 mmHg 67%
    14:00 +13°C° 0.1 mm 6 mps 743 mmHg 66%
    15:00 +13°C° 0.1 mm 6 mps 743 mmHg 65%
    16:00 +13°C° 0 mm 5 mps 743 mmHg 67%
    17:00 +13°C° 0 mm 5 mps 743 mmHg 68%
    18:00 +12°C° 0 mm 5 mps 744 mmHg 69%
    19:00 +11°C° 0 mm 4 mps 744 mmHg 74%
    20:00 +10°C° 0 mm 3 mps 744 mmHg 80%
    21:00 +9°C° 0 mm 2 mps 744 mmHg 85%
    22:00 +9°C° 0.1 mm 2 mps 745 mmHg 86%
    23:00 +8°C° 0.1 mm 2 mps 745 mmHg 87%

    Day after tomorrow, 21 June, Friday

    Time Temperature Precipitation Wind Pressure Humidity
    00:00 +8°C° 0.1 mm 3 mps 745 mmHg 88%
    01:00 +8°C° 0 mm 3 mps 745 mmHg 89%
    02:00 +8°C° 0 mm 3 mps 745 mmHg 91%
    03:00 +8°C° 0 mm 3 mps 745 mmHg 92%
    04:00 +8°C° 0 mm 3 mps 745 mmHg 89%
    05:00 +8°C° 0 mm 4 mps 746 mmHg 87%
    06:00 +10°C° 0 mm 4 mps 746 mmHg 84%
    07:00 +10°C° 0.1 mm 4 mps 746 mmHg 81%
    08:00 +10°C° 0.1 mm 5 mps 747 mmHg 79%
    09:00 +10°C° 0.1 mm 5 mps 747 mmHg 76%
    10:00 +12°C° 0.1 mm 5 mps 747 mmHg 73%
    11:00 +13°C° 0.1 mm 5 mps 748 mmHg 69%
    12:00 +13°C° 0.1 mm 6 mps 748 mmHg 66%
    13:00 +13°C° 0 mm 5 mps 748 mmHg 66%
    14:00 +13°C° 0 mm 5 mps 748 mmHg 65%
    15:00 +13°C° 0 mm 5 mps 748 mmHg 65%
    16:00 +13°C° 0 mm 5 mps 749 mmHg 67%
    17:00 +13°C° 0 mm 4 mps 749 mmHg 69%
    18:00 +12°C° 0 mm 4 mps 749 mmHg 70%
    19:00 +11°C° 0 mm 3 mps 749 mmHg 75%
    20:00 +9°C° 0 mm 2 mps 749 mmHg 79%
    21:00 +9°C° 0 mm 1 mps 750 mmHg 84%
    22:00 +8°C° 0 mm 1 mps 750 mmHg 84%
    23:00 +7°C° 0 mm 0 mps 750 mmHg 84%

    22 June, Saturday

    Time Temperature Precipitation Wind Pressure Humidity
    00:00 +7°C° 0 mm 0 mps 750 mmHg 85%
    01:00 +6°C° 0 mm 0 mps 750 mmHg 85%
    02:00 +6°C° 0 mm 0 mps 750 mmHg 85%
    03:00 +6°C° 0 mm 0 mps 750 mmHg 85%
    04:00 +7°C° 0 mm 0 mps 750 mmHg 82%
    05:00 +8°C° 0 mm 0 mps 750 mmHg 80%
    06:00 +9°C° 0 mm 0 mps 750 mmHg 78%
    07:00 +12°C° 0 mm 1 mps 750 mmHg 72%
    08:00 +13°C° 0 mm 1 mps 750 mmHg 67%
    09:00 +15°C° 0 mm 2 mps 750 mmHg 62%
    10:00 +15°C° 0 mm 2 mps 750 mmHg 59%
    11:00 +16°C° 0 mm 2 mps 750 mmHg 56%
    12:00 +17°C° 0 mm 2 mps 750 mmHg 52%
    13:00 +18°C° 0 mm 2 mps 750 mmHg 54%
    14:00 +18°C° 0 mm 2 mps 750 mmHg 56%
    15:00 +18°C° 0 mm 2 mps 750 mmHg 58%
    16:00 +18°C° 0 mm 2 mps 750 mmHg 61%
    17:00 +18°C° 0 mm 2 mps 750 mmHg 64%
    18:00 +17°C° 0 mm 2 mps 750 mmHg 67%
    19:00 +16°C° 0 mm 1 mps 750 mmHg 72%
    20:00 +14°C° 0 mm 1 mps 751 mmHg 77%
    21:00 +13°C° 0 mm 1 mps 751 mmHg 82%
    22:00 +12°C° 0 mm 1 mps 751 mmHg 83%
    23:00 +12°C° 0 mm 1 mps 751 mmHg 84%

    23 June, Sunday

    Time Temperature Precipitation Wind Pressure Humidity
    00:00 +11°C° 0 mm 1 mps 751 mmHg 85%
    01:00 +11°C° 0 mm 1 mps 751 mmHg 86%
    02:00 +11°C° 0 mm 1 mps 751 mmHg 87%
    03:00 +11°C° 0 mm 1 mps 751 mmHg 88%
    04:00 +12°C° 0 mm 1 mps 751 mmHg 87%
    05:00 +12°C° 0 mm 2 mps 751 mmHg 87%
    06:00 +13°C° 0 mm 2 mps 751 mmHg 86%
    07:00 +14°C° 0.1 mm 2 mps 751 mmHg 82%
    08:00 +16°C° 0.1 mm 3 mps 751 mmHg 79%
    09:00 +17°C° 0.1 mm 4 mps 752 mmHg 75%
    10:00 +18°C° 0.2 mm 4 mps 752 mmHg 72%
    11:00 +18°C° 0.2 mm 4 mps 752 mmHg 69%
    12:00 +19°C° 0.2 mm 4 mps 752 mmHg 67%
    13:00 +19°C° 0.1 mm 4 mps 752 mmHg 65%
    14:00 +19°C° 0.1 mm 5 mps 751 mmHg 64%
    15:00 +20°C° 0.1 mm 5 mps 751 mmHg 63%
    16:00 +19°C° 0 mm 5 mps 751 mmHg 67%
    17:00 +17°C° 0 mm 5 mps 751 mmHg 71%
    18:00 +16°C° 0 mm 5 mps 751 mmHg 74%
    19:00 +15°C° 0 mm 5 mps 751 mmHg 71%
    20:00 +14°C° 0 mm 6 mps 751 mmHg 68%
    21:00 +13°C° 0 mm 6 mps 752 mmHg 64%
    22:00 +13°C° 0 mm 6 mps 752 mmHg 68%
    23:00 +13°C° 0 mm 5 mps 752 mmHg 72%

    24 June, Monday

    Time Temperature Precipitation Wind Pressure Humidity
    00:00 +12°C° 0 mm 5 mps 752 mmHg 76%
    01:00 +11°C° 0.1 mm 6 mps 752 mmHg 80%
    02:00 +11°C° 0.1 mm 6 mps 751 mmHg 83%
    03:00 +11°C° 0.1 mm 7 mps 751 mmHg 86%
    04:00 +11°C° 0.3 mm 7 mps 751 mmHg 88%
    05:00 +11°C° 0.3 mm 7 mps 750 mmHg 90%
    06:00 +11°C° 0.3 mm 8 mps 750 mmHg 92%
    07:00 +11°C° 1.5 mm 8 mps 750 mmHg 92%
    08:00 +11°C° 1.5 mm 9 mps 750 mmHg 93%
    09:00 +11°C° 1.5 mm 9 mps 750 mmHg 93%
    10:00 +11°C° 1.1 mm 10 mps 750 mmHg 93%
    11:00 +11°C° 1.1 mm 10 mps 750 mmHg 92%
    12:00 +11°C° 1.1 mm 10 mps 750 mmHg 92%
    13:00 +11°C° 0.6 mm 10 mps 750 mmHg 92%
    14:00 +12°C° 0.6 mm 9 mps 750 mmHg 92%
    15:00 +12°C° 0.6 mm 9 mps 750 mmHg 93%
    16:00 +12°C° 0.8 mm 9 mps 749 mmHg 93%
    17:00 +12°C° 0.8 mm 10 mps 749 mmHg 93%
    18:00 +12°C° 0.8 mm 10 mps 749 mmHg 93%
    19:00 +12°C° 0.1 mm 9 mps 749 mmHg 93%
    20:00 +12°C° 0.1 mm 9 mps 750 mmHg 93%
    21:00 +12°C° 0.1 mm 8 mps 750 mmHg 93%
    22:00 +12°C° 0.3 mm 8 mps 750 mmHg 93%
    23:00 +12°C° 0.3 mm 9 mps 750 mmHg 93%
    Show more